Location: SAPM � Hemmingford
(45.0500°N, 73.5833°W)
Time: 10:56:07
(UTC-05:00)

Tiangong 2 - Visible Passes

Search period start: 17 December 2018 00:00
Search period end: 27 December 2018 00:00
Orbit: 383 x 391 km, 42.8° (Epoch: 17 December)

Date Brightness Start Highest point End Pass type
(mag) Time Alt. Az. Time Alt. Az. Time Alt. Az.
19 Dec 3.5 18:06:02 10° S 18:07:19 14° SSE 18:07:19 14° SSE visible
20 Dec 3.7 18:42:36 10° SW 18:43:39 17° SW 18:43:39 17° SW visible
21 Dec 2.8 17:44:17 10° SSW 17:46:48 22° SSE 17:47:39 20° SE visible
22 Dec 3.5 16:46:18 10° S 16:48:12 15° SSE 16:50:05 10° ESE visible
22 Dec 2.3 18:21:29 10° WSW 18:23:53 37° SSW 18:23:53 37° SSW visible
23 Dec 2.3 17:22:55 10° SW 17:25:48 32° SSE 17:27:50 16° ESE visible
23 Dec 4.1 18:59:13 10° WSW 19:00:05 17° WSW 19:00:05 17° WSW visible
24 Dec 1.5 18:00:28 10° WSW 18:03:34 52° S 18:04:01 47° SE visible
25 Dec 1.9 17:01:46 10° WSW 17:04:48 43° SSE 17:07:50 10° E visible
25 Dec 2.9 18:38:17 10° W 18:40:13 32° WSW 18:40:13 32° WSW visible
26 Dec 1.5 17:39:29 10° WSW 17:42:37 57° S 17:44:11 25° ESE visible
26 Dec 4.7 19:16:14 10° W 19:16:27 11° W 19:16:27 11° W visible
